Decherd, TN

12:56 PM CDT on July 28, 2016 (GMT -0500)
Winchester Municipal

Weather History for KBGF - March, 2014

Change the Weather History Date:

Saturday, March 8, 2014

  Actual Average (KTHA) Record (KTHA)
Temperature  
Mean Temperature 47 °F -  
Max Temperature 64 °F 60 °F 71 °F (2016)
Min Temperature 30 °F 35 °F 24 °F (2015)
Degree Days  
Heating Degree Days 18    
Moisture  
Dew Point 36 °F    
Average Humidity 67    
Maximum Humidity 100    
Minimum Humidity 34    
Precipitation  
Precipitation 0.00 in - - ()
Sea Level Pressure  
Sea Level Pressure 30.10 in    
Wind  
Wind Speed 2 mph (WSW)    
Max Wind Speed 12 mph    
Max Gust Speed -    
Visibility 10 miles    
Events      
Averages and records for this station are not official NWS values.
T = Trace of Precipitation, MM = Missing Value Source: NWS Daily Summary

Daily Weather History Graph

Daily Weather History Graph

Search for Another Location

Airport or City:

Trip Planner

Search our weather history database for the weather conditions in past years. The results will help you decide how hot, cold, wet, or windy it might be!

Date:

Astronomy

Mar. 08, 2014 Rise Set
Actual Time 7:04 AM EST 6:45 PM EST
Civil Twilight 6:39 AM EST 7:11 PM EST
Nautical Twilight 6:09 AM EST 7:40 PM EST
Astronomical Twilight 5:40 AM EST 8:10 PM EST
Moon 11:59 AM EST (3/8) 1:29 AM EST (3/8)
Length of Visible Light 12h 32m
Length of Day
11h 41m
First Quarter, 51% of the Moon is Illuminated
Mar 8
First Quarter
Mar 16
Full
Mar 23
Last Quarter
Mar 30
New
Apr 7
First Quarter

Hourly Weather History & Observations

Time (EST) Temp. Windchill Dew Point Humidity Pressure Visibility Wind Dir Wind Speed Gust Speed Precip Events Conditions
12:15 AM 35.6 °F - 33.8 °F 93% 30.04 in 10.0 mi Calm Calm - N/A   Clear
12:35 AM 35.6 °F - 33.8 °F 93% 30.03 in 10.0 mi Calm Calm - N/A   Clear
12:55 AM 35.6 °F - 32.0 °F 87% 30.03 in 10.0 mi Calm Calm - N/A   Clear
1:55 AM 33.8 °F - 32.0 °F 93% 30.03 in 10.0 mi Calm Calm - N/A   Clear
2:15 AM 35.6 °F - 32.0 °F 87% 30.04 in 10.0 mi Calm Calm - N/A   Clear
2:35 AM 33.8 °F - 30.2 °F 87% 30.05 in 10.0 mi Calm Calm - N/A   Clear
2:55 AM 33.8 °F - 30.2 °F 87% 30.04 in 10.0 mi Calm Calm - N/A   Clear
3:15 AM 33.8 °F - 30.2 °F 87% 30.05 in 10.0 mi Calm Calm - N/A   Clear
3:35 AM 33.8 °F - 30.2 °F 87% 30.05 in 10.0 mi Calm Calm - N/A   Clear
3:55 AM 33.8 °F - 30.2 °F 87% 30.05 in 10.0 mi Calm Calm - N/A   Clear
4:15 AM 32.0 °F - 30.2 °F 93% 30.06 in 10.0 mi Calm Calm - N/A   Clear
4:35 AM 30.2 °F - 30.2 °F 100% 30.06 in 10.0 mi Calm Calm - N/A   Clear
4:55 AM 30.2 °F - 28.4 °F 93% 30.07 in 10.0 mi Calm Calm - N/A   Clear
5:15 AM 30.2 °F - 28.4 °F 93% 30.08 in 10.0 mi Calm Calm - N/A   Clear
5:35 AM 32.0 °F - 30.2 °F 93% 30.08 in 10.0 mi Calm Calm - N/A   Clear
5:55 AM 33.8 °F - 30.2 °F 87% 30.08 in 10.0 mi Calm Calm - N/A   Clear
6:15 AM 32.0 °F - 30.2 °F 93% 30.09 in 10.0 mi Calm Calm - N/A   Clear
6:35 AM 30.2 °F - 28.4 °F 93% 30.10 in 10.0 mi Calm Calm - N/A   Clear
6:55 AM 30.2 °F - 28.4 °F 93% 30.11 in 10.0 mi Calm Calm - N/A   Clear
7:15 AM 30.2 °F - 30.2 °F 100% 30.11 in 10.0 mi Calm Calm - N/A   Clear
7:35 AM 32.0 °F - 30.2 °F 93% 30.11 in 10.0 mi Calm Calm - N/A   Clear
7:55 AM 33.8 °F - 30.2 °F 87% 30.13 in 10.0 mi Calm Calm - N/A   Clear
8:15 AM 35.6 °F - 32.0 °F 87% 30.14 in 10.0 mi Calm Calm - N/A   Clear
8:35 AM 39.2 °F - 35.6 °F 87% 30.14 in 10.0 mi Calm Calm - N/A   Clear
8:55 AM 44.6 °F - 35.6 °F 71% 30.14 in 10.0 mi Calm Calm - N/A   Clear
9:15 AM 46.4 °F - 37.4 °F 71% 30.15 in 10.0 mi Calm Calm - N/A   Clear
9:35 AM 51.8 °F - 39.2 °F 62% 30.15 in 10.0 mi Calm Calm - N/A   Clear
9:55 AM 53.6 °F - 39.2 °F 58% 30.15 in 10.0 mi SW 5.8 mph - N/A   Clear
10:15 AM 53.6 °F - 39.2 °F 58% 30.15 in 10.0 mi SW 5.8 mph - N/A   Clear
10:35 AM 55.4 °F - 41.0 °F 58% 30.15 in 10.0 mi Variable 5.8 mph - N/A   Clear
10:55 AM 55.4 °F - 41.0 °F 58% 30.15 in 10.0 mi WNW 4.6 mph - N/A   Clear
11:15 AM 57.2 °F - 39.2 °F 51% 30.15 in 10.0 mi West 8.1 mph - N/A   Clear
11:35 AM 59.0 °F - 39.2 °F 48% 30.14 in 10.0 mi WNW 4.6 mph - N/A   Clear
11:55 AM 59.0 °F - 39.2 °F 48% 30.14 in 10.0 mi SW 6.9 mph - N/A   Clear
12:15 PM 59.0 °F - 39.2 °F 48% 30.13 in 10.0 mi WNW 6.9 mph - N/A   Clear
12:35 PM 60.8 °F - 39.2 °F 45% 30.13 in 10.0 mi WSW 8.1 mph - N/A   Clear
12:55 PM 62.6 °F - 39.2 °F 42% 30.12 in 10.0 mi SW 11.5 mph - N/A   Clear
1:15 PM 60.8 °F - 39.2 °F 45% 30.12 in 10.0 mi WSW 9.2 mph - N/A   Clear
1:35 PM 62.6 °F - 37.4 °F 39% 30.11 in 10.0 mi WSW 9.2 mph - N/A   Clear
1:55 PM 62.6 °F - 37.4 °F 39% 30.10 in 10.0 mi SW 10.4 mph - N/A   Clear
2:15 PM 64.4 °F - 35.6 °F 34% 30.10 in 10.0 mi West 11.5 mph - N/A   Clear
2:35 PM 64.4 °F - 37.4 °F 37% 30.09 in 10.0 mi SSW 9.2 mph - N/A   Clear
2:55 PM 64.4 °F - 37.4 °F 37% 30.09 in 10.0 mi West 10.4 mph - N/A   Clear
3:15 PM 64.4 °F - 37.4 °F 37% 30.09 in 10.0 mi West 5.8 mph - N/A   Clear
3:35 PM 64.4 °F - 37.4 °F 37% 30.09 in 10.0 mi WSW 9.2 mph - N/A   Clear
3:55 PM 64.4 °F - 37.4 °F 37% 30.09 in 10.0 mi West 11.5 mph - N/A   Clear
4:15 PM 64.4 °F - 35.6 °F 34% 30.08 in 10.0 mi WSW 6.9 mph - N/A   Clear
4:35 PM 64.4 °F - 35.6 °F 34% 30.08 in 10.0 mi West 8.1 mph - N/A   Clear
4:55 PM 64.4 °F - 35.6 °F 34% 30.08 in 10.0 mi SW 8.1 mph - N/A   Clear
5:15 PM 64.4 °F - 35.6 °F 34% 30.08 in 10.0 mi West 6.9 mph - N/A   Clear
5:35 PM 64.4 °F - 35.6 °F 34% 30.08 in 10.0 mi WSW 8.1 mph - N/A   Clear
5:55 PM 62.6 °F - 37.4 °F 39% 30.08 in 10.0 mi WSW 5.8 mph - N/A   Clear
6:15 PM 62.6 °F - 37.4 °F 39% 30.08 in 10.0 mi WSW 8.1 mph - N/A   Clear
6:35 PM 60.8 °F - 37.4 °F 42% 30.09 in 10.0 mi WSW 3.5 mph - N/A   Clear
6:55 PM 59.0 °F - 39.2 °F 48% 30.09 in 10.0 mi WSW 3.5 mph - N/A   Clear
7:15 PM 57.2 °F - 37.4 °F 48% 30.10 in 10.0 mi Calm Calm - N/A   Clear
7:35 PM 55.4 °F - 39.2 °F 54% 30.10 in 10.0 mi Calm Calm - N/A   Clear
7:55 PM 50.0 °F - 39.2 °F 66% 30.10 in 10.0 mi Calm Calm - N/A   Clear
8:15 PM 48.2 °F - 39.2 °F 71% 30.11 in 10.0 mi Calm Calm - N/A   Clear
8:35 PM 46.4 °F - 39.2 °F 76% 30.11 in 10.0 mi Calm Calm - N/A   Clear
8:55 PM 46.4 °F - 37.4 °F 71% 30.12 in 10.0 mi Calm Calm - N/A   Clear
9:15 PM 44.6 °F - 37.4 °F 76% 30.12 in 10.0 mi Calm Calm - N/A   Clear
9:35 PM 44.6 °F - 37.4 °F 76% 30.13 in 10.0 mi Calm Calm - N/A   Clear
9:55 PM 42.8 °F - 37.4 °F 81% 30.14 in 10.0 mi Calm Calm - N/A   Clear
10:15 PM 42.8 °F - 37.4 °F 81% 30.14 in 10.0 mi Calm Calm - N/A   Scattered Clouds
10:35 PM 44.6 °F - 39.2 °F 81% 30.14 in 10.0 mi Calm Calm - N/A   Partly Cloudy
10:55 PM 44.6 °F 42.2 °F 37.4 °F 76% 30.15 in 10.0 mi NNW 4.6 mph - N/A   Partly Cloudy
11:15 PM 44.6 °F 43.1 °F 39.2 °F 81% 30.15 in 10.0 mi North 3.5 mph - N/A   Partly Cloudy
11:35 PM 48.2 °F - 39.2 °F 71% 30.15 in 10.0 mi Calm Calm - N/A   Scattered Clouds
11:55 PM 44.6 °F 43.1 °F 39.2 °F 81% 30.16 in 10.0 mi SSW 3.5 mph - N/A   Clear